ANDOYA/ANDENES(AFB) current weather conditions

sailwx.info

Wind from 130 at 12 knots

Air temperature -0.0° C
Visibility: greater than 5.4 NM
Dewpoint -6.0° C

Last reported at 2017-Nov-18 12:50 UTC.
Time now 2017-Nov-18 14:25 UTC

Location: N 69°18' E 016°08'.
View on Google Maps.

See reports from other nearby stations

  
Tides and Currents Weather Stations Pressure Air Temp Water Temp Dewpoint Dewpoint Depression Visibility Wind Speed Wind Dir Waves Ship Positions
date/time (UTC)wind fromknots sea level pressurealtimeterstation pressurevisibilityair tempwater tempwave heightnotes
2017-Nov-18 13:50 110 13 5.4-0.0
2017-Nov-18 13:20 120 13 5.4-0.0
2017-Nov-18 12:50 130 12 5.4-0.0
2017-Nov-18 12:20 130 12 5.4-0.0
2017-Nov-18 11:50 130 12 5.4 1.0
2017-Nov-18 11:20 110 12 5.4 1.0
2017-Nov-18 10:50 120 13 5.4 1.0
2017-Nov-18 10:20 120 8 5.4 1.0
2017-Nov-18 09:50 130 9 5.4 2.0
2017-Nov-18 09:20 110 9 5.4 2.0
2017-Nov-18 08:50 140 8 5.4 2.0
2017-Nov-18 08:20 130 12 5.4 2.0
2017-Nov-18 07:50 140 9 5.4 2.0
2017-Nov-18 07:20 140 9 5.4 2.0
2017-Nov-18 06:50 120 8 5.4 2.0
2017-Nov-18 06:20 120 8 5.4 2.0
2017-Nov-18 05:50 120 8 5.4 1.0
2017-Nov-18 05:20 110 7 5.4 1.0
2017-Nov-18 04:50 120 7 5.4 1.0
2017-Nov-18 04:20 140 6 5.4 1.0
2017-Nov-18 03:50 130 9 5.4 2.0
2017-Nov-18 03:20 120 9 5.4 2.0
2017-Nov-18 02:50 130 11 5.4 2.0
2017-Nov-18 02:20 120 12 5.4 2.0
2017-Nov-18 01:50 130 12 5.4 2.0
2017-Nov-18 01:20 130 11 5.4 2.0
2017-Nov-18 00:50 130 12 5.4 2.0
2017-Nov-18 00:20 120 12 5.4 2.0
2017-Nov-17 23:50 130 9 5.4 3.0
2017-Nov-17 23:20 140 9 5.4 2.0
2017-Nov-17 22:50 130 12 5.4 2.0
2017-Nov-17 22:20 130 12 5.4 2.0
2017-Nov-17 21:50 140 9 5.4 2.0
2017-Nov-17 21:20 130 9 5.4 2.0
2017-Nov-17 20:50 120 9 5.4 2.0
2017-Nov-17 20:20 130 8 5.4 2.0
2017-Nov-17 19:50 160 9 5.4 2.0
2017-Nov-17 19:20 120 9 5.4 2.0
2017-Nov-17 18:50 120 9 5.4 2.0
2017-Nov-17 18:20 110 12 5.4 2.0
2017-Nov-17 17:50 120 12 5.4 2.0
2017-Nov-17 17:20 120 11 5.4 2.0
2017-Nov-17 16:50 130 13 5.4 2.0
2017-Nov-17 16:20 120 14 5.4 2.0
2017-Nov-17 15:50 130 14 5.4 2.0
2017-Nov-17 15:20 130 13 5.4 3.0
2017-Nov-17 14:50 120 13 5.4 3.0
2017-Nov-17 14:20 130 13 5.4 2.0
2017-Nov-17 13:50 120 13 5.4 3.0
2017-Nov-17 13:20 130 9 5.4 2.0
2017-Nov-17 12:50 170 6 5.4 2.0
2017-Nov-17 12:20 130 13 5.4 2.0
2017-Nov-17 11:50 130 13 5.4 2.0
2017-Nov-17 11:20 130 13 5.4 2.0
2017-Nov-17 10:50 120 13 5.4 2.0
2017-Nov-17 10:20 130 13 5.4 2.0
2017-Nov-17 09:50 130 15 5.4 2.0
2017-Nov-17 09:20 120 14 5.4 2.0
2017-Nov-17 08:50 130 13 5.4 2.0
2017-Nov-17 08:20 130 13 5.4 2.0
2017-Nov-17 07:50 120 13 5.4 1.0
2017-Nov-17 07:20 120 13 5.4 2.0
2017-Nov-17 06:50 130 11 5.4 1.0
2017-Nov-17 06:20 120 12 5.4 2.0
2017-Nov-17 05:50 120 12 5.4 2.0
2017-Nov-17 05:20 120 14 5.4 2.0
2017-Nov-17 04:50 130 14 5.4 2.0
2017-Nov-17 04:20 130 14 5.4 2.0
2017-Nov-17 03:50 120 14 5.4 2.0
2017-Nov-17 03:20 120 15 5.4 2.0
2017-Nov-17 02:50 110 13 5.4 2.0
2017-Nov-17 02:20 120 13 5.4 1.0
2017-Nov-17 01:50 110 13 5.4 2.0
2017-Nov-17 01:20 110 13 5.4 2.0
2017-Nov-17 00:50 120 13 5.4 2.0
2017-Nov-17 00:20 120 14 5.4 2.0
2017-Nov-16 23:50 100 15 5.4 2.0
2017-Nov-16 23:20 100 17 5.4 2.0
2017-Nov-16 22:50 110 14 5.4 2.0
2017-Nov-16 22:20 110 14 5.4 2.0
2017-Nov-16 21:50 110 14 5.4 2.0
2017-Nov-16 21:20 120 12 5.4 2.0
2017-Nov-16 20:50 120 9 5.4 2.0
2017-Nov-16 20:20 120 9 5.4 2.0
2017-Nov-16 19:50 120 9 5.4 2.0
2017-Nov-16 19:20 110 9 5.4 2.0
2017-Nov-16 18:50 100 12 5.4 3.0
2017-Nov-16 18:20 110 9 5.4 3.0
2017-Nov-16 17:50 110 9 5.4 3.0 Light rain showers.
2017-Nov-16 17:20 080 8 5.4 3.0 Light rain showers.
2017-Nov-16 16:50 110 9 5.4 3.0
2017-Nov-16 16:20 140 8 5.4 2.0 Showers in the vicinity.
2017-Nov-16 15:50 150 6 5.4 2.0
2017-Nov-16 15:20 160 5 5.4 1.0 Showers in the vicinity.
2017-Nov-16 14:50 170 4 5.4-0.0 Light drizzle.
2017-Nov-16 14:20 210 5 5.4-0.0